Weather History for Lincoln, CA

Change the Weather History Date:

Tuesday, June 10, 2014

  Actual Average (KAUN) Record (KAUN)
Temperature  
Mean Temperature 82 °F -  
Max Temperature 104 °F 81 °F 98 °F (1949)
Min Temperature 60 °F 56 °F 44 °F (1954)
Cooling Degree Days 17    
Growing Degree Days 32 (Base 50)    
Moisture  
Dew Point 45 °F    
Average Humidity 33    
Maximum Humidity 60    
Minimum Humidity 9    
Precipitation  
Precipitation 0.00 in - - ()
Sea Level Pressure  
Sea Level Pressure 29.65 in    
Wind  
Wind Speed 6 mph (WNW)    
Max Wind Speed 18 mph    
Max Gust Speed 22 mph    
Visibility 10 miles    
Events      
Averages and records for this station are not official NWS values.
T = Trace of Precipitation, MM = Missing Value Source: NWS Daily Summary

Daily Weather History Graph

Daily Weather History Graph

Search for Another Location

Airport:

Trip Planner

Search our weather history database for the weather conditions in past years. The results will help you decide how hot, cold, wet, or windy it might be!

Date:

Astronomy

Jun. 10, 2014 Rise Set
Actual Time 5:39 AM PDT 8:30 PM PDT
Civil Twilight 5:07 AM PDT 9:02 PM PDT
Nautical Twilight 4:27 AM PDT 9:42 PM PDT
Astronomical Twilight 3:41 AM PDT 10:28 PM PDT
Moon 6:02 PM PDT (6/10) 3:47 AM PDT (6/10)
Length of Visible Light 15h 54m
Length of Day
14h 50m
Waxing Gibbous, 93% of the Moon is Illuminated
Jun 10
Waxing Gibbous
Jun 12
Full
Jun 19
Last Quarter
Jun 27
New
Jul 5
First Quarter

Hourly Weather History & Observations

Time (PDT) Temp. Heat Index Dew Point Humidity Pressure Visibility Wind Dir Wind Speed Gust Speed Precip Events Conditions
12:15 AM 73.4 °F - 42.8 °F 33% 29.63 in 10.0 mi ENE 6.9 mph - N/A   Clear
12:35 AM 75.2 °F - 41.0 °F 29% 29.63 in 10.0 mi ESE 3.5 mph - N/A   Clear
12:55 AM 77.0 °F - 41.0 °F 28% 29.63 in 10.0 mi ESE 4.6 mph - N/A   Clear
1:15 AM 77.0 °F - 41.0 °F 28% 29.63 in 10.0 mi ESE 5.8 mph - N/A   Clear
1:35 AM 78.8 °F - 41.0 °F 26% 29.63 in 10.0 mi ESE 4.6 mph - N/A   Clear
2:15 AM 73.4 °F - 41.0 °F 31% 29.63 in 10.0 mi Calm Calm - N/A   Clear
2:35 AM 73.4 °F - 42.8 °F 33% 29.63 in 10.0 mi South 3.5 mph - N/A   Clear
2:55 AM 68.0 °F - 42.8 °F 40% 29.64 in 10.0 mi Calm Calm - N/A   Clear
3:15 AM 69.8 °F - 44.6 °F 40% 29.64 in 10.0 mi Calm Calm - N/A   Clear
3:35 AM 68.0 °F - 44.6 °F 43% 29.65 in 10.0 mi Calm Calm - N/A   Clear
3:55 AM 68.0 °F - 44.6 °F 43% 29.65 in 10.0 mi Calm Calm - N/A   Clear
4:15 AM 64.4 °F - 44.6 °F 49% 29.65 in 10.0 mi Calm Calm - N/A   Clear
4:35 AM 60.8 °F - 46.4 °F 59% 29.65 in 10.0 mi Calm Calm - N/A   Clear
4:55 AM 60.8 °F - 46.4 °F 59% 29.65 in 10.0 mi North 5.8 mph - N/A   Clear
5:15 AM 60.8 °F - 46.4 °F 59% 29.65 in 10.0 mi Calm Calm - N/A   Clear
5:35 AM 60.8 °F - 46.4 °F 59% 29.66 in 10.0 mi Calm Calm - N/A   Clear
5:55 AM 60.8 °F - 46.4 °F 59% 29.65 in 10.0 mi Calm Calm - N/A   Clear
6:15 AM 60.8 °F - 46.4 °F 59% 29.66 in 10.0 mi NE 3.5 mph - N/A   Clear
6:35 AM 64.4 °F - 48.2 °F 56% 29.66 in 10.0 mi Calm Calm - N/A   Clear
6:55 AM 68.0 °F - 48.2 °F 49% 29.66 in 10.0 mi Calm Calm - N/A   Clear
7:15 AM 69.8 °F - 50.0 °F 49% 29.67 in 10.0 mi Calm Calm - N/A   Clear
7:55 AM 77.0 °F - 46.4 °F 34% 29.68 in 10.0 mi Calm Calm - N/A   Clear
8:15 AM 80.6 °F - 44.6 °F 28% 29.68 in 10.0 mi North 3.5 mph - N/A   Clear
8:35 AM 82.4 °F - 42.8 °F 25% 29.68 in 10.0 mi NNW 6.9 mph - N/A   Clear
8:55 AM 82.4 °F - 44.6 °F 26% 29.68 in 10.0 mi NNW 3.5 mph - N/A   Clear
9:15 AM 86.0 °F - 46.4 °F 25% 29.68 in 10.0 mi NW 5.8 mph - N/A   Clear
9:35 AM 86.0 °F - 44.6 °F 23% 29.68 in 10.0 mi WNW 6.9 mph - N/A   Clear
9:55 AM 86.0 °F - 48.2 °F 27% 29.68 in 10.0 mi WNW 8.1 mph - N/A   Clear
10:15 AM 87.8 °F - 44.6 °F 22% 29.68 in 10.0 mi WNW 6.9 mph - N/A   Clear
11:15 AM 91.4 °F - 46.4 °F 21% 29.68 in 10.0 mi NNW 11.5 mph - N/A   Clear
11:35 AM 93.2 °F - 44.6 °F 19% 29.68 in 10.0 mi WNW 11.5 mph 16.1 mph N/A   Clear
11:55 AM 93.2 °F - 46.4 °F 20% 29.68 in 10.0 mi WNW 11.5 mph - N/A   Clear
12:35 PM 95.0 °F - 42.8 °F 16% 29.67 in 10.0 mi North 11.5 mph 19.6 mph N/A   Clear
2:15 PM 100.4 °F - 42.8 °F 14% 29.65 in 10.0 mi NW 12.7 mph 17.3 mph N/A   Clear
2:55 PM 100.4 °F - 42.8 °F 14% 29.64 in 10.0 mi NW 11.5 mph 16.1 mph N/A   Clear
3:15 PM 100.4 °F - 42.8 °F 14% 29.63 in 10.0 mi NW 10.4 mph 16.1 mph N/A   Clear
3:35 PM 102.2 °F - 42.8 °F 13% 29.63 in 10.0 mi WNW 11.5 mph - N/A   Clear
4:15 PM 102.2 °F - 41.0 °F 12% 29.62 in 10.0 mi WNW 11.5 mph 16.1 mph N/A   Clear
4:55 PM 104.0 °F - 39.2 °F 11% 29.61 in 10.0 mi WNW 9.2 mph - N/A   Clear
5:15 PM 104.0 °F - 37.4 °F 10% 29.61 in 10.0 mi NW 8.1 mph - N/A   Clear
5:35 PM 104.0 °F - 35.6 °F 9% 29.60 in 10.0 mi WNW 10.4 mph - N/A   Clear
5:55 PM 104.0 °F - 33.8 °F 9% 29.59 in 10.0 mi WNW 8.1 mph - N/A   Clear
6:15 PM 102.2 °F - 35.6 °F 10% 29.59 in 10.0 mi WNW 8.1 mph - N/A   Clear
6:55 PM 100.4 °F - 35.6 °F 11% 29.59 in 10.0 mi WNW 6.9 mph - N/A   Clear
7:15 PM 100.4 °F - 35.6 °F 11% 29.59 in 10.0 mi WNW 4.6 mph - N/A   Clear
7:55 PM 95.0 °F - 42.8 °F 16% 29.59 in 10.0 mi SW 3.5 mph - N/A   Clear
8:15 PM 87.8 °F 85.7 °F 53.6 °F 31% 29.60 in 10.0 mi SSW 8.1 mph - N/A   Clear
8:35 PM 84.2 °F 82.8 °F 53.6 °F 35% 29.61 in 10.0 mi SSW 8.1 mph - N/A   Clear
9:15 PM 78.8 °F - 53.6 °F 42% 29.63 in 10.0 mi South 10.4 mph - N/A   Clear
9:35 PM 78.8 °F - 53.6 °F 42% 29.64 in 10.0 mi SSE 16.1 mph - N/A   Clear
9:55 PM 77.0 °F - 51.8 °F 41% 29.66 in 10.0 mi SSE 13.8 mph - N/A   Clear
10:15 PM 73.4 °F - 51.8 °F 47% 29.67 in 10.0 mi SSE 11.5 mph 18.4 mph N/A   Clear
10:35 PM 73.4 °F - 53.6 °F 50% 29.68 in 10.0 mi SSE 17.3 mph - N/A   Clear
10:55 PM 71.6 °F - 53.6 °F 53% 29.69 in 10.0 mi SSE 11.5 mph - N/A   Clear
11:15 PM 69.8 °F - 53.6 °F 56% 29.69 in 10.0 mi SSE 15.0 mph - N/A   Clear
11:35 PM 68.0 °F - 51.8 °F 56% 29.68 in 10.0 mi SSE 18.4 mph - N/A   Clear
11:55 PM 66.2 °F - 51.8 °F 60% 29.69 in 10.0 mi SSE 16.1 mph 21.9 mph N/A   Clear